Content
SEND FEEDBACK

Daily
Averages
Monthly
Summary
Spain

POZUELO DE ALARCON, SPAIN


Home > Europe > Spain
Elevation: 2156 feet     Latitude: 40 24N     Longitude: 003 42W

WEATHER
 
SELECT A DAY
Number of Records: 159,638;   Date Range: 7/1/96 - 9/29/14
 
SHARE

PRINT THIS DATA

[ ← Previous Day ]
WEATHER ALMANAC - FEBRUARY 28, 2013
[ Next Day → ]
[ °C ]   °F
Weather ElementAverageHighLow
Temperature38.3 °F41 °F (1:30 pm)35.6 °F (7:45 am)
Dewpoint34.5 °F37.4 °F (12:30 pm)28.4 °F (7:45 am)
Humidity86.4 %100 % (11:30 am)75 % (7:45 am)
Barometer29.85 in29.92 in (8:00 am)29.80 in (2:30 pm)
Wind Speed10.1 mph13.8 mph (8:00 pm)
Wind Gust31.1 mph (7:30 pm)
Weather ElementAverage
Visibility3.6 mi
Wind DirectionNNE (28.4 °)

Weather ElementTotal
Precipitation---
Heating Degree Days26.7 (Base 65)
Averaged from 25 records on February 28, 2013
WEATHER CONDITIONS BREAKOUT
WIND DIRECTION BREAKOUT
WEATHER BY HOUR - FEBRUARY 28, 2013
[ °C ]   °F
Local TimeTemperatureDewpointHumidityBarometerVisibilityWind DirectionWind SpeedGust SpeedPrecipitationEventsConditions
7:45 AM35.6 °F28.4 °F75 %29.89 in3.1 miNE (50°)6.9 mph18.4 mphSnowSnow
8:00 AM35.6 °F28.4 °F75 %29.92 in3.1 miENE (60°)5.8 mphSnowLight Snow
8:30 AM35.6 °F30.2 °F81 %29.92 in3.1 miNE (40°)6.9 mphSnowLight Snow
9:30 AM37.4 °F30.2 °F75 %29.89 in3.7 miNNE (30°)10.4 mphSnowLight Snow
10:00 AM35.6 °F32.0 °F87 %29.89 in0.9 miNE (40°)8.1 mph19.6 mphSnowSnow
10:10 AM37.4 °F32.0 °F81 %29.89 in1.9 miNE (40°)8.1 mph19.6 mphSnowLight Snow
10:30 AM37.4 °F32.0 °F81 %29.89 in1.9 miNE (40°)10.4 mph21.9 mphOvercast
11:00 AM37.4 °F33.8 °F87 %29.89 in3.7 miNE (40°)8.1 mph19.6 mphOvercast
11:20 AM35.6 °F33.8 °F93 %29.89 in1.6 miNE (40°)10.4 mphSnowSnow
11:30 AM35.6 °F35.6 °F100 %29.89 in1.6 miNNE (20°)6.9 mphSnowSnow
12:30 PM37.4 °F37.4 °F100 %29.86 in3.1 miNNE (20°)8.1 mphRainRain
1:00 PM37.4 °F37.4 °F100 %29.86 in6.2 miNNE (20°)10.4 mphOvercast
1:30 PM41.0 °F37.4 °F87 %29.83 in6.2 miNNE (30°)10.4 mph24.2 mphOvercast
2:00 PM41.0 °F37.4 °F87 %29.83 in6.2 miNNE (30°)12.7 mph24.2 mphOvercast
2:30 PM41.0 °F35.6 °F81 %29.80 in6.2 miNNE (20°)11.5 mph24.2 mphOvercast
3:00 PM39.2 °F35.6 °F87 %29.80 in6.2 miNNE (20°)12.7 mphOvercast
3:30 PM39.2 °F35.6 °F87 %29.80 in6.2 miNNE (20°)11.5 mph23.0 mphRainLight Rain
4:30 PM39.2 °F35.6 °F87 %29.80 in6.2 miNNE (20°)11.5 mph25.3 mphRainLight Rain
5:00 PM39.2 °F37.4 °F93 %29.80 in1.9 miVariable11.5 mph23.0 mphRainRain
5:30 PM39.2 °F37.4 °F93 %29.80 in1.5 miNNE (30°)10.4 mph26.5 mphRainRain
6:00 PM39.2 °F37.4 °F93 %29.80 in1.5 miNNE (20°)10.4 mph26.5 mphRainRain
6:30 PM39.2 °F37.4 °F93 %29.80 in3.7 miNNE (20°)10.4 mph23.0 mphRainLight Rain
7:00 PM41.0 °F35.6 °F81 %29.80 in3.7 miNNE (20°)12.7 mphOvercast
7:30 PM41.0 °F35.6 °F81 %29.80 in3.7 miNNE (20°)12.7 mph31.1 mphOvercast
8:00 PM41.0 °F33.8 °F76 %29.80 in3.7 miNNE (20°)13.8 mph27.6 mphOvercast
Hourly data recorded from LEVS, located miles away from Pozuelo de Alarcon, Spain







STORIES FROM OUR PARTNERS